www.pogodaiklimat.ru

Погода и климат >> Архив погоды >> Финляндия >> Турку


ПОГОДА в Турку

  • Прогноз погоды в Турку
  • Монитор погоды в Турку

АРХИВ ПОГОДЫ в Турку

Время (UTC), дата Ветер
(напр.,м/с)
 
Видим.   Явления Облачность Т
(С)
Тd
(С)
f
(%)
Тe
(С)
Тes
(С)
Комфортность P
(гПа)
Po
(гПа)
Тmin
(С)
Tmax
(С)
R
(мм)
R24
(мм)
S
(см)
03 10.06 З 5-9
{11}
50 км ясно +14.0 +8.5 69 +12 +13 1018.8 1017.7
06 10.06 З 5-9
{11}
50 км 3/3 600 м
[]
+15.5 +8.9 65 +14 +17 1019.1 1018.0 +13.4 +16.0
09 10.06 ЮЗ 7-15
{15}
50 км ясно +17.3 +8.4 56 +16 +20 1019.8 1018.7
12 10.06 ЮЗ 5-10
{15}
35 км ясно +19.3 +7.7 47 +20 +27 1020.1 1019.0
15 10.06 ЮЗ 5-9
{11}
45 км ясно +18.3 +8.7 53 +18 +21 1020.1 1019.0
18 10.06 ЮЗ 4-6
{7}
50 км ясно +16.5 +9.3 62 +16 +16 1020.4 1019.3 +15.4 +19.9
21 10.06 Ю 3-5
{6}
50 км ясно +13.7 +9.6 76 +13 +13 1020.6 1019.5
00 11.06 штиль 0-1
{2}
40 км ясно +10.5 +9.5 94 +10 +10 1021.3 1020.2
03 11.06 Ю 1-2
{3}
45 км ясно +12.2 +10.7 91 +12 +13 1021.7 1020.6
06 11.06 ЮЗ 1-3
{4}
50 км ясно +18.4 +10.9 62 +20 +27 1022.1 1021.0 +9.6 +18.4
09 11.06 ЮЗ 3-6
{6}
50 км 5/0
[]
+21.0 +8.0 43 +23 +31 комфорт 1022.8 1021.7
12 11.06 З 4-6
{6}
40 км 9/0
[]
+22.8 +9.0 41 +24 +29 комфорт 1022.3 1021.3
15 11.06 С 2-4
{5}
50 км 8/4 2000 м
[]
+22.9 +7.8 38 +24 +26 комфорт 1021.2 1020.1
18 11.06 С 5-8
{9}
50 км 9/6
[]
+22.2 +7.7 39 +23 +23 комфорт 1021.2 1020.2 +18.4 +23.6
21 11.06 СВ 6-13
{13}
50 км 9/0
[]
+17.9 +7.0 49 +17 +17 1022.7 1021.6
00 12.06 СВ 5-8
{11}
50 км 9/0
[]
+13.7 +3.5 50 +12 +12 1024.2 1023.1
03 12.06 СВ 5-8
{9}
50 км 9/1
[]
+11.5 +2.1 52 +9 +9 1024.6 1023.5
06 12.06 СВ 4-7
{9}
50 км 9/6
[]
+12.9 +4.7 57 +11 +12 1025.1 1024.0 +11.4 +22.2
09 12.06 СВ 5-7
{8}
50 км 9/0
[]
+16.1 +6.3 52 +15 +19 1025.3 1024.2
12 12.06 В 5-9
{11}
45 км 1/0
[]
+20.0 +7.4 44 +21 +27 комфорт 1024.4 1023.3
15 12.06 В 5-8
{9}
50 км 8/0
[]
+19.5 +6.9 44 +20 +22 1022.9 1021.8
18 12.06 В 5-9
{11}
50 км в посл. час дождь {ливн. осадки} 9/9
[]
+16.7 +5.7 48 +16 +16 1023.1 1022.0 +12.9 +21.0
21 12.06 В 4-8
{11}
50 км 10/9
[]
+14.3 +4.1 50 +13 +13 1022.7 1021.5
00 13.06 В 6-10
{10}
50 км 3/0
[]
+12.9 +3.8 54 +11 +11 1021.6 1020.5
03 13.06 В 6-10
{10}
50 км слаб. морось {дождь} 10/0 1000 м
[]
+12.7 +5.1 60 +10 +11 1019.3 1018.2
06 13.06 В 8-13
{13}
45 км {ливн. осадки, дождь} 3/3 600 м
[]
+15.8 +8.5 62 +14 +15 1017.4 1016.3 +12.4 +16.7
09 13.06 В 8-14
{14}
50 км 1/0
[]
+20.0 +12.2 61 +21 +23 комфорт 1016.0 1015.0
12 13.06 В 8-13
{13}
35 км слаб. ливневой дождь 9/8 300 м
[]
+17.5 +12.7 73 +16 +17 1016.3 1015.2
15 13.06 В 5-8
{9}
35 км слаб. дождь 10/0 300 м
[]
+16.4 +14.1 86 +15 +17 1015.9 1014.8
18 13.06 В 4-6
{9}
50 км {ливн. осадки, дождь} 10/10 600 м
[]
+17.3 +14.5 84 +17 +17 1014.6 1013.5 +15.6 +21.6 0.4
21 13.06 ЮВ 4-7
{7}
50 км 10/0 300 м
[]
+16.5 +13.8 84 +16 +16 1015.4 1014.3
00 14.06 СВ 1-2
{4}
50 км 10/0 200 м
[]
+16.1 +13.8 86 +17 +17 1014.0 1012.9
03 14.06 В 1-3
{4}
2600 м дымка 10/0 50 м
[]
+15.2 +15.0 99 +16 +16 1014.0 1012.9
06 14.06 ЮЗ 2-4
{4}
2200 м дымка 10/10 50 м
[]
+14.7 +14.5 99 +14 +14 1014.2 1013.1 +14.6 +17.6 0.1
09 14.06 Ю 2-3
{4}
24 км 10/0 200 м
[]
+15.8 +13.8 88 +16 +22 1015.7 1014.6
12 14.06 Ю 3-5
{5}
20 км 10/0 200 м
[]
+15.5 +13.9 90 +15 +20 1016.6 1015.5
15 14.06 З 5-7
{7}
40 км {ливн. осадки, дождь} 10/0 200 м
[]
+15.9 +13.4 85 +15 +16 1016.9 1015.8
18 14.06 З 3-5
{6}
40 км {ливн. осадки, дождь} 10/10 200 м
[]
+14.0 +11.7 86 +13 +13 1017.4 1016.3 +13.6 +16.8 0.1
21 14.06 З 3-6
{6}
45 км 10/0 200 м
[]
+12.2 +10.7 91 +11 +11 1018.1 1017.0
00 15.06 З 3-5
{5}
35 км 10/0 100 м
[]
+12.2 +11.2 94 +11 +11 1018.4 1017.3
03 15.06 СЗ 2-3
{4}
45 км 10/0 100 м
[]
+12.1 +10.9 92 +11 +11 1017.9 1016.8
06 15.06 ЮЗ 2-3
{5}
50 км 9/9 300 м
[]
+14.5 +11.7 83 +14 +15 1017.3 1016.2 +11.8 +15.2
09 15.06 Ю 4-6
{6}
50 км ясно +17.8 +13.1 74 +18 +26 1017.6 1016.5
12 15.06 З 4-6
{9}
35 км ясно +21.5 +12.5 57 +24 +33 комфорт 1017.2 1016.1
15 15.06 З 4-7
{8}
45 км ясно +22.0 +10.7 49 +24 +28 комфорт 1017.1 1016.0
18 15.06 ЮЗ 3-6
{7}
50 км ясно +18.8 +11.0 60 +20 +20 1016.6 1015.5 +14.5 +22.9
21 15.06 штиль 0 50 км ясно +14.0 +11.2 83 +14 +14 1016.4 1015.3
00 16.06 штиль 0 50 км ясно +11.7 +10.7 94 +11 +11 1016.3 1015.2
03 16.06 штиль 0 50 км 9/0 2000 м
[]
+12.6 +11.2 91 +12 +13 1015.7 1014.6
06 16.06 ЮЗ 2-3
{4}
50 км ясно +19.5 +13.0 66 +22 +27 комфорт 1015.4 1014.3 +11.0 +19.5
09 16.06 ЮЗ 4-6
{6}
50 км ясно +22.6 +13.2 55 +26 +34 жарко 1014.9 1013.8
12 16.06 ЮЗ 5-9
{9}
45 км ясно +24.2 +12.1 47 +26 +33 жарко 1014.6 1013.5
15 16.06 СЗ 4-8
{9}
45 км ясно +23.1 +11.0 46 +25 +29 комфорт 1014.1 1013.0
18 16.06 З 2-4
{6}
50 км ясно +21.5 +10.3 49 +23 +24 комфорт 1013.8 1012.7 +19.4 +24.7
21 16.06 штиль 0
{3}
50 км ясно +15.6 +11.4 76 +15 +15 1013.8 1012.7
00 17.06 штиль 0-2
{2}
50 км ясно +13.5 +11.8 89 +13 +13 1013.5 1012.4

 

Местоположение метеостанции Турку (Финляндия): широта 60.45 долгота 22.18 высота над уровнем моря 8 м.

В архиве по умолчанию представлена погода в Турку за последнюю неделю. Архивные данные за месяц целиком и за предыдущие месяцы, начиная с января 2011 года, Вы можете получить, выбрав интересующий диапазон дат из раскрывающегося списка и нажав кнопку "Ввод!".


*Определитесь, кто Вы:
робот инопланетянин человек

Внимание! Время в таблицах - всемирное. Для получения местного времени необходимо прибавить поправку, которая равна 1 ч.

Смотрите также архив погоды в соседних городах и на ближайших метеорологических станциях:

Погода на Острове Раякари (Финляндия) (9 км)
Погода в Пиккио Йолтoнен (Финляндия) (21 км)
Погода в Кимиёнсаари (Финляндия) (45 км)
Погода на Острове Фагерхольм (Финляндия) (46 км)
Погода в Сало (Финляндия) (52 км)
Погода на Вано (Финляндия) (65 км)
Погода в Кустави Исокари (Финляндия) (70 км)
Погода в Аэропорту Сало Киикала (Финляндия) (81 км)
Погода в Кумлинге (Финляндия) (81 км)
Погода в Ханко (Финляндия) (82 км)

Пояснения к столбцам:

Ветер - указаны скорость ветра в м/с - средняя за 10 мин, порывы в срок и между сроками (в фигурных скобках) и направление, откуда дует ветер: С - северный, СВ - северо-восточный, В - восточный, ЮВ - юго-восточный, Ю - южный, ЮЗ - юго-западный, З - западный, СЗ - северо-западный.
Видимость - горизонтальная дальность видимости в метрах или километрах. При видимости от 1 до 10 км при отсутствии осадков обычно наблюдается дымка, при ухудшении видимости до 1 км и менее - туман. В сухую погоду видимость может ухудшаться дымом, пылью или мглою.
Явления - указаны атмосферные явления, наблюдавшиеся в срок или в последний час перед сроком; фигурными скобками обозначены явления, наблюдавшиеся между сроками (за 1-3 часа до срока); квадратными скобками обозначены град или гололедные отложения с указанием их диаметра в мм.
Облачность - указаны через наклонную черту общая и нижняя облачность в баллах и высота нижней границы облаков в метрах; квадратными скобками обозначены формы облаков: Ci - перистые, Cs - перисто-слоистые, Cc - перисто-кучевые, Ac - высококучевые, As - высокослоистые, Sc - слоисто-кучевые, Ns - слоисто-дождевые, Cu - кучевые, Cb - кучево-дождевые. Подробнее классификацию облаков см. в Атласе облаков (PDF).
T - Температура воздуха - температура, измеренная на высоте 2 м над землей.
Td - Температура точки росы - температура, при понижении до которой содержащийся в воздухе водяной пар достигнет насыщения.
f - Относительная влажность воздуха - влажноcть воздуха, измеренная на высоте 2 м над землей.
Te - Эффективная температура - температура, которую ощущает одетый по сезону человек в тени. Характеристика душности погоды. При расчете учитывается влияние влажности воздуха и скорости ветра на теплоощущения человека.
Tes - Эффективная температура на солнце - температура, которую ощущает человек, с поправкой на солнечный нагрев. Характеристика знойности погоды. Зависит от высоты солнца над горизонтом, облачности и скорости ветра. Ночью, в пасмурную погоду, а также при ветре 12 м/с и более поправка равна нулю.
P - Атмосферное давление - приведенное к уровню моря атмосферное давление.
Po - Атмосферное давление - измеренное на уровне метеостанции атмосферное давление.
Tmin - Минимальная температура - минимум температуры воздуха на высоте 2 м над землей.
Tmax - Максимальная температура - максимум температуры воздуха на высоте 2 м над землей.
R - Количество осадков - Количество выпавших осадков за период времени, мм. При наведении курсора мыши на число - период времени, за который выпало указанное количество осадков.
R24 - Количество осадков - Количество выпавших осадков за 24 часа, мм.
S - Снежный покров - Высота снежного покрова, см. При наведении курсора мыши на число - состояние снежного покрова и степень покрытия местности в баллах.